#timestamp,LO_Frequency,Hit,StdDev 
1548183615.5,286046998.1,N
1548183635.4,286046998.1,N
1548183655.2,286046999.4,N
1548183675.1,286046999.0,N
1548183676.0,286046999.0,N
1548183695.8,286047000.0,N
1548183715.6,286046999.8,N
1548183735.5,286046998.6,N
1548183755.3,286047001.2,N
1548183775.2,286047000.9,N
1548183795.9,286047001.0,N
1548183815.7,286046998.3,N
1548183835.6,286046998.6,N
1548183855.4,286046999.2,N
1548183875.2,286046996.5,N
1548183895.1,286046998.0,N
1548183896.0,286046998.0,N
1548183915.8,286046997.1,N
1548183935.7,286046997.7,N
1548183955.5,286046998.4,N
1548183975.3,286047001.2,N
1548183995.2,286046999.0,N
1548184015.0,286047002.7,N
1548184015.9,286047002.7,N
1548184035.7,286046999.7,N
1548184055.6,286046999.9,N
1548184075.4,286046998.4,N
1548184095.3,286047001.2,N
1548184115.1,286046998.5,N
1548184116.0,286046998.5,N
1548184135.8,286047000.8,N
1548184155.7,286047000.6,N
1548184175.5,286047000.7,N
1548184195.3,286046998.4,N
1548184215.2,286047001.2,N
1548184235.0,286047000.3,N
1548184235.9,286047000.3,N
1548184255.8,286046998.2,N
1548184275.6,286047000.9,N
1548184295.4,286046998.8,N
1548184315.3,286046998.5,N
1548184335.1,286046998.4,N
1548184355.8,286046998.3,N
1548184375.7,286046998.7,N
1548184395.5,286047000.5,N
1548184415.4,286047000.4,N
1548184435.2,286047002.7,N
1548184455.0,286047004.4,N
1548184455.9,286047004.4,N
1548184475.8,286047001.5,N
1548184495.6,286047003.8,N
1548184515.4,286047002.5,N
1548184535.3,286047002.8,N
1548184555.1,286046998.8,N
1548184575.9,286047001.2,N
1548184595.7,286046998.3,N
1548184615.5,286046998.1,N
1548184635.4,286046998.7,N
1548184655.2,286047001.2,N
1548184675.0,286046998.7,N
1548184675.9,286046998.7,N
1548184695.8,286046999.4,N
1548184715.6,286046996.8,N
1548184735.4,286046996.6,N
1548184755.3,286046997.4,N
1548184775.1,286046997.1,N
1548184795.9,286046999.2,N
1548184815.7,286046997.8,N
1548184835.5,286046996.6,N
1548184855.4,286046998.3,N
1548184875.2,286046999.2,N
1548184895.0,286046998.6,N
1548184896.0,286046998.6,N
1548184915.8,286047000.8,N
1548184935.6,286047000.6,N
1548184955.5,286047000.3,N
1548184975.3,286046999.7,N
1548184995.1,286047002.8,N
1548185015.9,286047002.5,N
1548185035.7,286047002.2,N
1548185055.5,286047000.1,N
1548185075.4,286047003.4,N
1548185095.2,286047001.8,N
1548185115.1,286047003.1,N
1548185116.0,286047003.1,N
1548185135.8,286047003.9,N
1548185155.6,286047001.8,N
1548185175.5,286047000.8,N
1548185195.3,286047001.1,N
1548185215.1,286047001.1,N
1548185235.9,286046998.7,N
1548185255.7,286046998.5,N
1548185275.6,286047001.2,N
1548185295.4,286046999.0,N
1548185315.2,286046997.0,N
1548185335.1,286046996.8,N
1548185336.0,286046996.8,N
1548185355.8,286046996.7,N
1548185375.7,286046996.8,N
1548185395.5,286046996.8,N
1548185415.3,286046996.6,N
1548185435.2,286046996.9,N
1548185455.9,286046995.3,N
1548185475.7,286046993.3,N
1548185495.6,286046993.7,N
1548185515.4,286046994.2,N
1548185535.3,286046993.4,N
1548185555.1,286046996.1,N
1548185556.0,286046996.1,N
1548185575.8,286046996.2,N
1548185595.7,286046996.1,N
1548185615.5,286046994.9,N
1548185635.3,286046996.4,N
1548185655.2,286046993.7,N
1548185675.0,286046993.8,N
1548185675.9,286046993.8,N
1548185695.8,286046993.4,N
1548185715.6,286046996.3,N
1548185735.4,286046997.4,N
1548185755.3,286046998.1,N
1548185775.1,286046998.2,N
1548185795.8,286046998.6,N
1548185815.7,286047001.9,N
1548185835.5,286047002.2,N
1548185855.4,286047001.9,N
1548185875.2,286047002.8,N
1548185895.0,286047000.5,N
1548185895.9,286047000.5,N
1548185915.8,286047000.2,N
1548185935.6,286047001.1,N
1548185955.4,286047001.1,N
1548185975.3,286047001.0,N
1548185995.1,286047000.6,N
1548186015.9,286047000.0,N
1548186035.7,286046998.4,N
1548186055.5,286047000.1,N
1548186075.4,286047001.2,N
1548186095.2,286046998.2,N
1548186115.1,286046998.5,N
1548186116.0,286046998.5,N
1548186135.8,286047000.7,N
1548186155.6,286047000.9,N
1548186175.5,286047002.3,N
1548186195.3,286046999.9,N
1548186215.1,286046999.7,N
1548186235.9,286047001.2,N
1548186255.7,286046998.8,N
1548186275.6,286046998.5,N
1548186295.4,286046998.1,N
1548186315.2,286047001.2,N
1548186335.1,286047002.6,N
1548186336.0,286047002.6,N
1548186355.8,286047002.6,N
1548186375.6,286047001.8,N
1548186395.5,286047003.8,N
1548186415.3,286047004.3,N
1548186435.2,286047002.0,N
1548186455.9,286047001.5,N
1548186475.7,286047000.0,N
1548186495.6,286047000.4,N
1548186515.4,286047000.7,N
1548186535.2,286046998.7,N
1548186555.1,286047001.0,N
1548186556.0,286047001.0,N
1548186575.8,286047002.2,N
1548186595.7,286047001.7,N
1548186615.5,286047003.8,N
1548186635.3,286047001.4,N
1548186655.2,286047002.5,N
1548186675.0,286047001.9,N
1548186675.9,286047001.9,N
1548186695.7,286047002.6,N
1548186715.6,286047001.6,N
1548186735.4,286047002.4,N
1548186755.3,286046999.7,N
1548186775.1,286046998.9,N
1548186776.0,286046998.9,N
1548186795.8,286046998.9,N
1548186815.7,286046999.6,N
1548186835.5,286046999.5,N
1548186855.3,286046996.8,N
1548186875.2,286046999.6,N
1548186895.0,286046997.3,N
1548186895.9,286046997.3,N
1548186915.8,286046997.1,N
1548186935.6,286046996.8,N
1548186955.4,286046999.4,N
1548186975.3,286046999.4,N
1548186995.1,286046996.9,N
1548187015.8,286046996.7,N
1548187035.7,286046997.3,N
1548187055.5,286046993.4,Y
1548187075.4,286046997.9,P
1548187095.2,286046997.3,N
1548187115.0,286046999.0,N
1548187115.9,286046999.0,N
1548187135.8,286046996.6,Y
1548187155.6,286047001.2,P
1548187175.4,286046996.9,N
1548187195.3,286046997.4,N
